Regional Weather Roundup
Issued by NWS Upton, NY

Current Version | Previous Version | Text Only | Print | Product List | Glossary On
Versions: 1 2 3 4 5 6 7 8 9 10 11 12 13 14 15 16 17 18 19 20 21 22 23 24 25 26 27 28 29 30 31 32 33 34 35 36 37 38 39 40 41 42 43 44 45 46 47 48 49 50
000
ASUS41 KOKX 211905
RWROKX

REGIONAL WEATHER ROUNDUP
NATIONAL WEATHER SERVICE NEW YORK NY
300 PM EDT THU AUG 21 2014

NOTE: "FAIR" INDICATES FEW OR NO CLOUDS BELOW 12,000 FEET WITH NO
SIGNIFICANT WEATHER AND/OR OBSTRUCTIONS TO VISIBILITY.

NYZ071-072-176-178-NJZ106-104-212000-
NEW YORK CITY METRO AREA


CITY           SKY/WX    TMP DP  RH WIND       PRES   REMARKS
CENTRAL PARK   PTSUNNY   78  61  55 VRB6      30.06S
LAGUARDIA APRT PTSUNNY   80  59  48 S13       30.03F
KENNEDY INTL   PTSUNNY   78  60  53 SE12      30.06S
NEWARK/LIBERTY PTSUNNY   80  64  58 SE14      30.03F
BRNX BOT. GARD   N/A     77  59  53 E7        30.06R
TETERBORO      CLOUDY    81  62  52 S12       30.01F
$$

NYZ177-179-078>081-212000-
LONG ISLAND NEW YORK

CITY           SKY/WX    TMP DP  RH WIND       PRES   REMARKS
FARMINGDALE    PTSUNNY   76  56  49 S12       30.05F
ISLIP          MOSUNNY   76  62  62 SE9       30.04F
SHIRLEY        CLOUDY    74  65  73 SE12      30.06F
WESTHAMPTON    SUNNY     75  63  66 SE9G16    30.07F
MONTAUK POINT    N/A     75  64  68 VRB5      30.07F
$$

NYZ052-065-067-212000-
HUDSON VALLEY

CITY           SKY/WX    TMP DP  RH WIND       PRES   REMARKS
WHITE PLAINS   PTSUNNY   77  62  59 S9        30.04F
NEWBURGH       PTSUNNY   79  61  53 W9        30.04S
MONTGOMERY     PTSUNNY   81  62  52 SE5       30.01F
POUGHKEEPSIE   PTSUNNY   79  64  60 SE5       30.01F
ALBANY         CLOUDY    76  64  66 S8        30.00F
$$

NJZ001-105-106-008-010-013-015-019>022-104-212000-
NEW JERSEY

CITY           SKY/WX    TMP DP  RH WIND       PRES   REMARKS
NEWARK/LIBERTY PTSUNNY   80  64  58 SE14      30.03F
TETERBORO      CLOUDY    81  62  52 S12       30.01F
CALDWELL       PTSUNNY   81  64  56 S9        30.02F
MORRISTOWN     PTSUNNY   82  63  51 S6        30.01F
SOMERVILLE     MOSUNNY   86  58  38 S9        29.99F
LINDEN         FAIR      84  67  55 SE12      30.04F
SUSSEX         CLOUDY    80  64  58 SW10      30.01F
ANDOVER          N/A     79  65  62 VRB3      30.02F
TRENTON        MOSUNNY   83  60  45 S9G16     30.01F
MILLVILLE      CLOUDY    80  66  62 VRB3      30.02F
ATLANTIC CITY  MOSUNNY   79  64  60 S13       30.03F
WRIGHTSTOWN    CLOUDY    83  62  49 S7        29.99F
TOMS RIVER     MOSUNNY   81  64  57 SE9G16    30.04S
BELMAR         MOSUNNY   77  61  57 SE12      30.04S
$$

PAZ047>061-062-071-212000-
EASTERN PENNSYLVANIA

CITY           SKY/WX    TMP DP  RH WIND       PRES   REMARKS
PHILADELPHIA   CLOUDY    82  68  62 S7        30.01F
ALLENTOWN      PTSUNNY   81  67  62 S7        30.00F
SCRANTON       MOSUNNY   84  63  49 SW12      29.98F
$$

CTZ002-004>006-009-010-012-RIZ004-006-007-MAZ004-011-015-212000-
SOUTHERN NEW ENGLAND
 IN CT

CITY           SKY/WX    TMP DP  RH WIND       PRES   REMARKS
BRADLEY INTL   CLOUDY    78  62  57 NE7       30.03F
HARTFORD       CLOUDY    78  60  53 SE8       30.03F
DANBURY        PTSUNNY   76  61  59 SE8       30.05F
WTRBRY/OXFORD  PTSUNNY   73  55  53 S9        30.08F
BRIDGEPORT     PTSUNNY   77  60  55 E10       30.04F
MERIDEN        CLOUDY    76  62  62 S8        30.05S
NEW HAVEN      CLOUDY    76  63  64 SE7       30.05F
CHESTER        CLOUDY    73  64  73 SE7       30.07F
GROTON         MOSUNNY   73  64  73 SE10      30.05F
WILLIMANTIC    PTSUNNY   78  59  51 VRB3      30.05F

 IN RI

CITY           SKY/WX    TMP DP  RH WIND       PRES   REMARKS
PROVIDENCE     PTSUNNY   78  61  55 SE5       30.05F
BLOCK ISLAND   SUNNY     73  63  68 E7        30.07F
WESTERLY       SUNNY     74  62  66 SE12      30.07F

 IN MA

CITY           SKY/WX    TMP DP  RH WIND       PRES   REMARKS
BOSTON         MOSUNNY   71  64  78 E12       30.07F
WORCESTER      LGT RAIN  70  57  63 NE3       30.09F
WESTFIELD      CLOUDY    73  65  75 CALM      30.05F
PROVINCETOWN   MOSUNNY   73  66  78 MISG      30.08S
NANTUCKET      PTSUNNY   72  63  73 NE13      30.05F
$$

ANZ330-335-338-340-345-350-353-355-212000-
COASTAL MARINE OBSERVATIONS


STATION/POSITION TIME  SKY/WX   TEMP    WIND        PRES    VSBY  WAVE
                                AIR SEA DIR/SP/G                  HT/PER
                 (UTC)          (F)     (DEG/KT/KT) (MB)    (MI)  (FT/S)
NY HARB ENTRANCE NOT AVBL
4S FIRE IS       NOT AVBL
23SW MTP         1900            71 70              1017.6          3/ 7
HUDSON CANYON    1900            72 74   80/  6/  6 1017.6          3/ 6
EXECUTION ROCKS  1900            75 74   80/  8/ 12   N/A
WESTERN LI SOUND 1900            74      80/ 12/ 14   N/A           1/ 2
CENTRAL LI SOUND 1800            71 73   80/  8/ 10   N/A           1
EASTERN LI SOUND 1800            69 70  150/ 10/ 12   N/A
ROBBINS REEF     1900            73     160/ 16/ 18   N/A
$$


>>>>>>>>>>>>>>>>>>>>>>>>>>>> KEY <<<<<<<<<<<<<<<<<<<<<<<<<<<
>                                                          <
>     SKY/WX - SKY CONDITION/PRESENT WEATHER               <
>     TMP    - TEMPERATURE IN FAHRENHEIT                   <
>     DP     - DEWPOINT IN FAHRENHEIT                      <
>     RH     - RELATIVE HUMIDITY IN PERCENT                <
>     WIND   - DIRECTION AND SPEED IN MPH                  <
>     PRES   - MEAN SEA LEVEL PRESSURE IN INCHES OF HG     <
>     WCI    - WIND CHILL INDEX                            <
>     VSB    - VISIBILITY IN MILES                         <
>     HX     - HEAT INDEX                                  <
>     TC     - TEMPERATURE IN CELSIUS                      <
>     VRB    - VARIABLE WIND DIRECTION                     <
>                                                          <
>>>>>>>>>>>>>>>>>>>>>>>>>>>> KEY <<<<<<<<<<<<<<<<<<<<<<<<<<<





USA.gov is the U.S. government's official web portal to all federal, state and local government web resources and services.